This demonstration page uses our WeatherBlox Daily Observations layout. Learn more.

Left ArrowRight Arrow

39.92423, -83.80882

Hourly Observations for March 15, 2021

Temp ( °F °C ) Dew Point ( °F °C ) Humidity (%) Winds ( mph kmh ) Pressure ( in mb ) Visibility ( mi km ) Precip ( " mm )
12:56 am 00:56 Clear 32 undefined 6 -14.4 33 33 ENE 17 28 30.41 1030 10 16 N/A
1:56 am 01:56 Clear 31 -0.6 9 -12.8 40 40 ENE 14 22 30.40 1030 10 16 N/A
2:56 am 02:56 Clear 29 -1.7 11 -11.7 47 47 ENE 13 20 30.40 1029 10 16 N/A
3:56 am 03:56 Clear 28 -2.2 11 -11.7 49 49 ENE 13 20 30.39 1029 10 16 N/A
4:56 am 04:56 Clear 28 -2.2 11 -11.7 49 49 ENE 13 20 30.38 1029 10 16 N/A
5:56 am 05:56 Clear 26 -3.3 13 -10.6 57 57 ENE 12 19 30.37 1029 10 16 N/A
6:56 am 06:56 Clear 27 -2.8 17 -8.3 66 66 E 14 22 30.38 1029 10 16 N/A
7:56 am 07:56 Sunny 27 -2.8 18 -7.8 69 69 E 14 22 30.38 1029 10 16 N/A
8:56 am 08:56 Sunny 28 -2.2 19 -7.2 69 69 E 21 33 30.38 1029 10 16 N/A
9:56 am 09:56 Sunny 28 -2.2 19 -7.2 69 69 E 24 39 30.35 1028 10 16 N/A
10:56 am 10:56 Cloudy 30 -1.1 19 -7.2 64 64 E 17 28 30.34 1027 10 16 N/A
11:56 am 11:56 Cloudy 32 undefined 18 -7.8 56 56 E 22 35 30.31 1027 10 16 N/A
12:56 pm 12:56 Cloudy with Light Wintry Mix 32 undefined 17 -8.3 54 54 ESE 17 28 30.30 1026 10 16 N/A
1:56 pm 13:56 Windy with Snow Likely 32 undefined 21 -6.1 64 64 E 21 33 30.26 1025 9 14 N/A
2:56 pm 14:56 Cloudy with Light Rain 33 0.6 17 -8.3 52 52 E 21 33 30.23 1024 10 16 N/A
3:39 pm 15:39 Cloudy with Light Freezing Rain 32 undefined 25 -4 75 75 E 21 33 30.19 1022 10 16 N/A
3:56 pm 15:56 Cloudy with Light Freezing Rain 32 undefined 25 -3.9 75 75 E 21 33 30.16 1021 10 16 N/A
4:17 pm 16:17 Cloudy with Light Snow 32 undefined 25 -4 75 75 E 17 28 30.18 1022 9 14 N/A
4:56 pm 16:56 Cloudy with Light Freezing Rain 32 undefined 27 -2.8 82 82 E 20 31 30.15 1021 9 14 N/A
5:15 pm 17:15 Cloudy with Light Wintry Mix 32 undefined 28 -2 87 87 E 17 28 30.16 1021 10 16 N/A
5:24 pm 17:24 Cloudy with Light Freezing Rain 32 undefined 27 -3 80 80 E 23 37 30.15 1021 10 16 N/A
5:37 pm 17:37 Windy with Snow Likely 32 undefined 27 -3 80 80 E 22 35 30.13 1020 8 13 N/A
5:56 pm 17:56 Windy with Snow Likely 32 undefined 28 -2.2 85 85 E 21 33 30.13 1020 8 13 N/A
6:56 pm 18:56 Windy with Snow Likely 32 undefined 28 -2.2 85 85 E 20 31 30.11 1020 9 14 N/A
7:36 pm 19:36 Windy with Snow Likely 32 undefined 28 -2 87 87 ESE 21 33 30.11 1020 10 16 N/A
7:56 pm 19:56 Windy with Snow Likely 32 undefined 30 -1.1 92 92 ESE 22 35 30.09 1019 9 14 N/A
8:56 pm 20:56 Cloudy 32 undefined 32 undefined 100 100 ESE 22 35 30.07 1018 10 16 N/A
9:56 pm 21:56 Cloudy with Light Rain 33 0.6 33 0.6 100 100 ESE 17 28 30.06 1018 10 16 N/A
10:25 pm 22:25 Cloudy with Light Rain 34 1 34 1 100 100 ESE 16 26 30.06 1018 10 16 N/A
10:56 pm 22:56 Cloudy 33 0.6 33 0.6 100 100 ESE 12 19 30.04 1017 10 16 N/A
11:25 pm 23:25 Mostly Cloudy 34 1 34 1 100 100 ESE 12 19 30.04 1017 10 16 N/A
11:56 pm 23:56 Mostly Cloudy 34 1.1 34 1.1 100 100 ESE 10 17 30.03 1017 10 16 N/A

Powered by AerisWeather